FW9069 Weather Reports


time (UTC)temp
F
wind
direction
speed
knots
gust
knots
rain 1hr
in
rain 24hr
in
rain mn
in
humidity
%
barometer
mb
20220627203333 87 263 5.2 10.4 0.00 0.00 0.00 41 1015.4
20220627201841 86 245 4.3 7.8 0.00 0.00 0.00 39 1015.3
20220627200323 86 157 2.6 7.8 0.00 0.00 0.00 41 1015.4
20220627194828 85 202 3.5 8.7 0.00 0.00 0.00 45 1015.4
20220627193329 84 206 1.7 7.0 0.00 0.00 0.00 48 1015.5
20220627191829 84 173 3.5 7.0 0.00 0.00 0.00 50 1015.5
20220627190335 83 256 3.5 6.1 0.00 0.00 0.00 44 1015.7
20220627184836 83 180 2.6 7.0 0.00 0.00 0.00 47 1015.7
20220627183315 81 178 1.7 6.1 0.00 0.00 0.00 52 1015.6
20220627181825 81 235 2.6 6.1 0.00 0.00 0.00 55 1015.7
20220627180328 79 192 0.9 4.3 0.00 0.00 0.00 56 1015.7
20220627174831 78 200 1.7 4.3 0.00 0.00 0.00 55 1015.8
20220627173331 77 250 2.6 5.2 0.00 0.00 0.00 57 1015.6
20220627171833 76 175 2.6 6.1 0.00 0.00 0.00 56 1015.9
20220627170328 75 206 0.9 3.5 0.00 0.00 0.00 55 1016.0
20220627164828 73 140 1.7 3.5 0.00 0.00 0.00 59 1016.1
20220627163327 72 104 1.7 3.5 0.00 0.00 0.00 61 1016.2
20220627161829 71 103 2.6 4.3 0.00 0.00 0.00 63 1016.3
20220627160330 69 85 2.6 3.5 0.00 0.00 0.00 66 1016.2
20220627154836 68 131 1.7 3.5 0.00 0.00 0.00 66 1016.1
20220627153316 68 125 1.7 3.5 0.00 0.00 0.00 68 1016.1
20220627151825 67 67 1.7 3.5 0.00 0.00 0.00 69 1016.0
20220627150327 67 80 3.5 4.3 0.00 0.00 0.00 68 1016.2
20220627144828 67 99 2.6 4.3 0.00 0.00 0.00 67 1016.1
20220627143328 67 43 1.7 3.5 0.00 0.00 0.00 67 1015.9
20220627141827 67 287 2.6 5.2 0.00 0.00 0.00 59 1015.9
20220627140329 65 290 3.5 4.3 0.00 0.00 0.00 64 1015.8
20220627134832 65 264 2.6 4.3 0.00 0.00 0.00 67 1015.8
20220627133331 63 258 1.7 4.3 0.00 0.00 0.00 69 1015.6
20220627131833 62 243 0.9 1.7 0.00 0.00 0.00 73 1015.7
20220627130337 61 243 1.7 2.6 0.00 0.00 0.00 75 1015.7
20220627124822 61 243 0.9 2.6 0.00 0.00 0.00 76 1015.9
20220627123322 61 251 1.7 2.6 0.00 0.00 0.00 76 1015.8
20220627121824 62 252 0.0 1.7 0.00 0.00 0.00 75 1015.8
20220627120328 63 251 0.0 1.7 0.00 0.00 0.00 72 1015.6
20220627114830 63 256 2.6 4.3 0.00 0.00 0.00 70 1015.6
20220627113331 64 249 1.7 4.3 0.00 0.00 0.00 68 1015.6
20220627111834 64 267 2.6 7.0 0.00 0.00 0.00 65 1015.2
20220627110317 65 248 2.6 5.2 0.00 0.00 0.00 65 1015.3
20220627104826 65 254 1.7 4.3 0.00 0.00 0.00 66 1015.3
20220627103331 66 274 1.7 3.5 0.00 0.00 0.00 65 1015.3
20220627101814 66 281 2.6 5.2 0.00 0.00 0.00 65 1015.3
20220627100326 66 291 1.7 4.3 0.00 0.00 0.00 65 1015.3
20220627094830 66 282 1.7 3.5 0.00 0.00 0.00 65 1015.3
20220627093328 66 278 1.7 3.5 0.00 0.00 0.00 63 1015.3
20220627091829 66 275 2.6 6.1 0.00 0.00 0.00 63 1015.3
20220627090336 66 287 6.1 9.6 0.00 0.00 0.00 62 1015.5
20220627084820 67 266 3.5 7.8 0.00 0.00 0.00 62 1015.5
20220627083323 67 261 3.5 6.1 0.00 0.00 0.00 60 1015.7
20220627081823 68 244 2.6 6.1 0.00 0.00 0.00 60 1015.6
20220627080326 69 261 3.5 7.0 0.00 0.00 0.00 59 1015.5
20220627074830 70 262 4.3 7.8 0.00 0.00 0.00 59 1015.2
20220627073334 69 277 1.7 4.3 0.00 0.00 0.00 61 1015.2
20220627071837 69 277 5.2 7.8 0.00 0.00 0.00 62 1014.9
20220627070317 69 290 3.5 7.0 0.00 0.00 0.00 64 1015.1
20220627064818 70 263 2.6 6.1 0.00 0.00 0.00 63 1015.1
20220627063328 71 256 3.5 5.2 0.00 0.00 0.00 60 1015.1
20220627061831 73 225 2.6 7.8 0.00 0.00 0.00 55 1015.2
20220627060334 75 270 3.5 8.7 0.00 0.00 0.00 52 1015.0
20220627054816 76 285 3.5 7.8 0.00 0.00 0.00 52 1014.7
20220627053326 78 281 3.5 5.2 0.00 0.00 0.00 45 1014.7
20220627051825 80 267 4.3 7.8 0.00 0.00 0.00 40 1014.6
20220627050324 81 302 4.3 9.6 0.00 0.00 0.00 38 1014.4
20220627044824 81 286 7.8 10.4 0.00 0.00 0.00 38 1014.2
20220627043329 81 292 7.0 13.9 0.00 0.00 0.00 40 1014.2
20220627041831 81 295 6.1 14.8 0.00 0.00 0.00 43 1014.0
20220627040335 82 291 5.2 9.6 0.00 0.00 0.00 42 1014.0
20220627034818 82 249 3.5 8.7 0.00 0.00 0.00 46 1014.1
20220627033327 84 279 5.2 9.6 0.00 0.00 0.00 44 1014.1
20220627031829 88 227 4.3 6.1 0.00 0.00 0.00 43 1013.9
20220627030329 91 250 2.6 5.2 0.00 0.00 0.00 41 1013.9
20220627024832 94 261 2.6 4.3 0.00 0.00 0.00 39 1013.9
20220627023333 96 298 1.7 2.6 0.00 0.00 0.00 35 1013.8
20220627021836 96 358 0.0 3.5 0.00 0.00 0.00 30 1013.8
20220627020337 98 344 0.0 3.5 0.00 0.00 0.00 29 1013.7
20220627014834 97 350 0.9 2.6 0.00 0.00 0.00 30 1013.6
20220627013334 97 285 0.9 3.5 0.00 0.00 0.00 31 1013.4
20220627011838 97 357 1.7 4.3 0.00 0.00 0.00 30 1013.5
20220627010322 97 360 1.7 5.2 0.00 0.00 0.00 28 1013.4
20220627004825 97 9 3.5 6.1 0.00 0.00 0.00 28 1013.5
20220627003326 97 50 2.6 7.0 0.00 0.00 0.00 30 1013.4
20220627001831 97 80 2.6 7.0 0.00 0.00 0.00 29 1013.5
20220627000334 96 332 1.7 5.2 0.00 0.00 0.00 32 1013.7
20220626234835 96 71 4.3 7.8 0.00 0.00 0.00 29 1013.8
20220626233338 96 351 3.5 7.8 0.00 0.00 0.00 32 1014.0
20220626231841 95 17 3.5 8.7 0.00 0.00 0.00 32 1014.2
20220626230326 95 19 5.2 9.6 0.00 0.00 0.00 31 1014.1
20220626224828 95 28 5.2 7.8 0.00 0.00 0.00 32 1014.3
20220626223331 96 348 4.3 8.7 0.00 0.00 0.00 30 1014.3
20220626221832 96 356 4.3 8.7 0.00 0.00 0.00 31 1014.2
20220626220333 95 37 7.8 10.4 0.00 0.00 0.00 32 1014.4
20220626214836 95 39 5.2 9.6 0.00 0.00 0.00 35 1014.4
20220626213335 95 26 1.7 7.8 0.00 0.00 0.00 36 1014.5
20220626211838 95 61 3.5 9.6 0.00 0.00 0.00 33 1014.6
20220626210322 94 29 3.5 10.4 0.00 0.00 0.00 33 1014.7
20220626204825 93 34 7.0 9.6 0.00 0.00 0.00 33 1014.8